Location: Dziadowski
(50.3833°N, 20.0333°E)
Time: 20:20:42
(UTC+00:00)

Cosmos 407 Rocket - Pass Details

Date: 18 January 2026
Orbit: 738 x 782 km, 74.0° (Epoch: 14 February)

Event Time Altitude Azimuth Distance (km) Brightness Sun altitude
Rises 05:15:05 0° 212° (SSW) 3,175 6.6 -11.9°
Reaches altitude 10° 05:17:27 10° 215° (SW) 2,261 5.8 -11.5°
Maximum altitude 05:22:32 64° 297° (WNW) 834 3.4 -10.7°
Drops below altitude 10° 05:27:43 10° 20° (NNE) 2,304 6.0 -10.0°
Sets 05:30:09 0° 23° (NNE) 3,241 6.8 -9.6°
